Location: Recife
(8.0585°S, 34.8848°W)
Time: 11:28:00
(UTC-03:00)

Vanguard 2 - Pass Details

Date: 19 April 2026
Orbit: 554 x 2894 km, 32.9° (Epoch: 7 May)

Event Time Altitude Azimuth Distance (km) Brightness Sun altitude
Rises 00:08:08 0° 242° (WSW) 6,463 - -77.4°
Reaches altitude 10° 00:13:32 10° 231° (SW) 5,625 - -76.2°
Maximum altitude 00:27:25 28° 179° (S) 4,344 - -72.8°
Exits shadow 00:37:37 15° 133° (SE) 4,827 11.6 -70.3°
Drops below altitude 10° 00:40:05 10° 126° (SE) 5,127 11.8 -69.7°
Sets 00:44:40 0° 114° (ESE) 5,824 12.3 -68.6°
